Home   Weather   Manali   Past weeks
Flag for India

Past Weather in Manali, Himachal Pradesh, India — Yesterday and Last 2 Weeks

Now
102 °F

Passing clouds.


Feels Like: 99 °F
Forecast: 61 / 36 °F
Wind: 2 mph from North

Location: Amritsar Airport

Current Time: May 21, 2019 at 3:05:46 pm

Latest Report: May 21, 2019 at 2:00 pm


Visibility: 4 mi

Pressure: 29.74 "Hg (24.17 "Hg at 1894m altitude)

Humidity: 17%

Dew Point: 50 °F

Location of ManaliLocation

Past Weather in Manali — Graph

°F

Manali Temperature Yesterday

Maximum temperature yesterday: 100 °F (at 1:00 pm)
Minimum temperature yesterday: 70 °F (at 6:00 am)
Average temperature yesterday: 88 °F

High & Low Weather Summary for the Past Weeks

 TemperatureHumidityPressure
High106 °F (May 8, 2:30 pm)94% (May 17, 5:00 am)29.89 "Hg (May 17, 5:00 am)
Low66 °F (May 18, 6:00 am)12% (May 8, 3:00 pm)29.56 "Hg (May 9, 3:30 pm)
Average85 °F43%29.71 "Hg
* Reported May 6 1:30 pm — May 21 2:00 pm, Manali. Weather by CustomWeather, © 2019

Note: Actual official high and low records may vary slightly from our data, if they occured in-between our weather recording intervals... More about our weather records

Advertising

Manali Weather History for the Previous 24 Hours

Scroll right to see more
 ConditionsComfort  
Time TempWeatherWind HumidityBarometerVisibility
2:00 pm
Tue, May 21
102 °FPassing clouds.2 mph17%29.74 "Hg4 mi
1:30 pm102 °FPassing clouds.2 mph18%29.74 "Hg4 mi
1:00 pm102 °FClear.8 mph18%29.77 "Hg4 mi
12:30 pm100 °FClear.6 mph22%29.77 "Hg4 mi
12:00 pm100 °FClear.2 mph22%29.77 "Hg4 mi
11:30 am100 °FClear.2 mph24%29.77 "Hg4 mi
11:00 am97 °FClear.2 mph27%29.77 "Hg4 mi
10:30 am95 °FClear.2 mph28%29.77 "Hg4 mi
10:00 am93 °FHaze.5 mph32%29.77 "Hg3 mi
9:30 am91 °FHaze.2 mph34%29.77 "Hg2 mi
9:00 am90 °FFog.5 mph36%29.77 "Hg2 mi
8:30 am86 °FHaze.2 mph40%29.77 "Hg2 mi
8:00 am82 °FHaze.3 mph48%29.77 "Hg2 mi
7:30 am81 °FHaze.5 mph48%29.77 "Hg2 mi
7:00 am77 °FHaze.2 mph54%29.77 "Hg2 mi
6:30 am75 °FHaze.No wind57%29.74 "Hg2 mi
6:00 am73 °FHaze.2 mph61%29.74 "Hg2 mi
5:30 am75 °FHaze.No wind61%29.74 "Hg2 mi
5:00 am75 °FHaze.No wind57%29.74 "Hg2 mi
4:30 am75 °FHaze.No wind57%29.74 "Hg2 mi
4:00 am75 °FHaze.No wind57%29.74 "Hg2 mi
2:30 am77 °FHaze.No wind57%29.74 "Hg2 mi
2:00 am79 °FHaze.2 mph51%29.74 "Hg2 mi
1:30 am77 °FHaze.1 mph54%29.77 "Hg2 mi
1:00 am79 °FHaze.5 mph48%29.77 "Hg2 mi
12:30 am79 °FHaze.No wind48%29.77 "Hg2 mi
12:00 am81 °FHaze.No wind45%29.77 "Hg2 mi
11:30 pm
Mon, May 20
81 °FHaze.No wind48%29.77 "Hg2 mi
11:00 pm82 °FHaze.No wind42%29.77 "Hg2 mi
10:30 pm81 °FPassing clouds.No wind45%29.77 "Hg2 mi
10:00 pm82 °FPassing clouds.No wind42%29.77 "Hg2 mi
9:30 pm84 °FPassing clouds.No wind43%29.77 "Hg2 mi
9:00 pm86 °FPassing clouds.No wind40%29.77 "Hg2 mi
8:30 pm88 °FPassing clouds.No wind35%29.74 "Hg2 mi
8:00 pm90 °FPassing clouds.6 mph31%29.74 "Hg3 mi
7:30 pm91 °FPassing clouds.6 mph30%29.74 "Hg3 mi
7:00 pm93 °FPassing clouds.8 mph28%29.74 "Hg4 mi
6:30 pm97 °FClear.9 mph23%29.74 "Hg4 mi
6:00 pm99 °FClear.12 mph21%29.74 "Hg4 mi
5:30 pm100 °FClear.14 mph20%29.74 "Hg4 mi
5:00 pm100 °FClear.14 mph16%29.74 "Hg4 mi
4:30 pm100 °FClear.13 mph15%29.74 "Hg4 mi
4:00 pm100 °FClear.14 mph14%29.74 "Hg4 mi
3:30 pm100 °FClear.14 mph14%29.77 "Hg4 mi
3:00 pm100 °FClear.10 mph15%29.77 "Hg4 mi
Weather by CustomWeather, © 2019

See weather overview